Location: Dannhausen
(51.8650°N, 10.1026°E)
Time: 09:09:45
(UTC+00:00)

MONITOR-E - Pass Details

Date: 09 April 2020
Orbit: 309 x 314 km, 97.0° (Epoch: 24 May)

Event Time Altitude Azimuth Distance (km) Brightness Sun altitude
Rises 18:40:21 0° 163° (SSE) 2,061 7.4 -5.7°
Reaches altitude 10° 18:42:13 10° 161° (SSE) 1,239 6.3 -5.9°
Maximum altitude 18:44:51 76° 75° (ENE) 343 3.7 -6.3°
Drops below altitude 10° 18:47:31 10° 350° (N) 1,266 7.2 -6.7°
Sets 18:49:26 0° 349° (NNW) 2,113 8.3 -7.0°
